Terminal Aerodrome Forecast
Issued by NWS Spokane, WA

Home | Current Version | Previous Version | Text Only | Print | Product List | Glossary On
Versions: 1 2 3 4 5 6 7 8 9 10 11 12 13 14 15 16 17 18 19 20 21 22 23 24 25 26 27 28 29 30
000
FTUS46 KOTX 231138
TAFLWS
TAF
KLWS 231138Z 2312/2412 16003KT P6SM VCSH SCT090 BKN120
     FM231600 32005KT P6SM FEW080 SCT100
     FM232000 31006KT P6SM VCSH BKN080 BKN120
     FM240200 04004KT P6SM SCT080 SCT120=

USA.gov is the U.S. government's official web portal to all federal, state and local government web resources and services.